Weather in Perpignan

France     42°41′59″N   2°53′10″E
temp.,
°C
wind,
m/s
gust,
m/s
humid.,
%
clouds,
%
prec.,
mm/h
press.,
hPa
HPBL,
m
16 may, sun
sun1623:00+16sw1268100 0.0 1013109
02:00+16s2367100 0.1 1011110
05:00+16se1171100 0.0 101047
08:00+16w117084 0.0 101096
11:00+19ene2257100 0.0 1011393
14:00+18e1366100 0.1 1011471
17:00+18nw61263100 0.4 1011725
20:00+16nw91567100 0.6 10131091
17 may, mon
mon1723:00+15nw81763100 0.2 10151265
02:00+15nw9185699 0.2 10151409
05:00+15nw81757100 0.0 10151402
08:00+14nw9175591 0.0 10171349
11:00+17nw10154594 0.0 10181495
14:00+19nw9133991 0.0 10181220
17:00+20nw8123756 0.0 10171246
20:00+19nnw6104569 0.0 1018856
18 may, tue
tue1823:00+16nnw6115589 0.0 1020796
02:00+15nw611552 0.0 1020797
05:00+14nw38587 0.0 1020500
08:00+13nw3558100 0.0 1021295
11:00+17nnw564497 0.0 1021925
14:00+19nnw6743100 0.0 10201147
17:00+16nw81255100 0.0 10211166
20:00+15nw81359100 0.0 1022801
19 may, wed
wed1923:00+15nw8135693 0.0 1023756
02:00+14nw7125871 0.0 1023794
05:00+14nw61263100 0.0 1023826
08:00+14nw8136138 0.0 10251002
11:00+16nw10134769 0.0 10251011
14:00+19nw912381 0.0 10241130
17:00+20nnw913405 0.0 10221192
20:00+19nw9154714 0.0 10231006
20 may, thu
thu2023:00+16nw9155217 0.0 10261112
02:00+15nw8136197 0.0 10261232
05:00+13nw8146325 0.0 1025975
08:00+14nw6125967 0.0 1025768
11:00+18nw7103610 0.0 1024817
14:00+21nnw6931100 0.0 1023897
17:00+20e253961 0.0 1021935
20:00+20ese1343100 0.0 1021517